Location: Unspecified
(17.6330°N, 0.0000°E)
Time: 21:02:14
(UTC+00:00)

A-11 Canister half - Pass Details

Date: 19 June 2019
Orbit: 1514 x 1685 km, 47.2° (Epoch: 18 July)

Event Time Altitude Azimuth Distance (km) Brightness Sun altitude
Rises 10:24:28 0° 241° (WSW) 4,925 11.4 66.6°
Reaches altitude 10° 10:27:51 10° 247° (WSW) 3,928 11.0 67.4°
Maximum altitude 10:37:23 47° 318° (NW) 2,085 10.4 69.5°
Drops below altitude 10° 10:46:42 10° 30° (NNE) 3,823 11.4 71.6°
Sets 10:49:58 0° 36° (NE) 4,784 11.8 72.3°
